www.pogodaiklimat.ru

Погода и климат >> Архив погоды >> Финляндия >> Вихти


ПОГОДА в Вихти

  • Прогноз погоды в Вихти
  • Монитор погоды в Вихти

АРХИВ ПОГОДЫ в Вихти

Время (UTC), дата Ветер
(напр.,м/с)
 
Видим.   Явления Облачность Т
(С)
Тd
(С)
f
(%)
Тe
(С)
Тes
(С)
Комфортность P
(гПа)
Po
(гПа)
Тmin
(С)
Tmax
(С)
R
(мм)
R24
(мм)
S
(см)
16 9.06 ЮЗ 4 н/о н/о +19.6 +6.9 44 +20 +20 1019.5 1014.5
17 9.06 Ю 4 н/о н/о +18.6 +7.4 48 +19 +19 1019.2 1014.2
18 9.06 Ю 3-6
{9}
н/о н/о +17.2 +7.7 54 +17 +17 1019.1 1014.1 +17.2 +21.7
19 9.06 ЮЗ 2-4
{7}
н/о н/о +16.3 +9.5 64 +16 +16 1019.4 1014.3
20 9.06 Ю 3-4
{6}
н/о н/о +13.9 +10.5 80 +13 +13 1019.6 1014.5
21 9.06 Ю 3-4
{6}
н/о н/о +12.7 +10.8 88 +11 +11 1019.8 1014.7
22 9.06 ЮВ 3-4
{6}
н/о н/о +11.7 +10.4 92 +10 +10 1019.7 1014.6
23 9.06 Ю 3-5
{5}
н/о н/о +11.9 +10.5 91 +10 +10 1019.5 1014.4
00 10.06 Ю 1-3
{5}
н/о н/о +10.8 +10.1 95 +10 +10 1019.3 1014.2
01 10.06 ЮВ 2 н/о н/о +10.3 +9.8 97 +9 +9 1019.1 1014.0
02 10.06 Ю 1 н/о н/о +10.6 +10.1 97 +10 +10 1019.1 1014.0
03 10.06 Ю 1-3
{4}
н/о н/о +12.8 +11.0 89 +13 +13 1019.1 1014.0
04 10.06 Ю 2 н/о н/о +13.3 +10.8 85 +13 +13 1019.4 1014.3
05 10.06 ЮЗ 3 н/о н/о +13.6 +9.3 75 +12 +12 1019.4 1014.3
06 10.06 З 4-7
{7}
н/о н/о +15.0 +8.8 66 +14 +14 1019.4 1014.4 +10.2 +17.2
07 10.06 Ю 5-8
{8}
н/о н/о +16.1 +8.7 61 +15 +15 1019.4 1014.3
08 10.06 Ю 4 н/о н/о +17.4 +7.0 50 +17 +17 1019.4 1014.4
09 10.06 ЮЗ 4-10
{12}
н/о н/о +18.5 +7.7 49 +19 +19 1019.5 1014.5
10 10.06 ЮЗ 4 н/о н/о +19.0 +6.8 45 +19 +19 1019.9 1014.9
11 10.06 ЮЗ 5 н/о н/о +19.1 +6.6 44 +19 +19 1019.9 1014.9
12 10.06 ЮЗ 4-10
{10}
н/о н/о +19.4 +7.2 45 +20 +20 1020.0 1015.0
13 10.06 ЮЗ 4-9
{12}
н/о н/о +19.4 +7.3 45 +20 +20 1019.7 1014.7
14 10.06 ЮЗ 4 н/о н/о +19.1 +6.9 45 +20 +20 1019.7 1014.7
15 10.06 ЮЗ 3-8
{10}
н/о н/о +19.0 +7.0 46 +20 +20 1019.9 1014.9
16 10.06 ЮЗ 3-7
{9}
н/о н/о +18.4 +6.8 47 +19 +19 1019.9 1014.8
17 10.06 ЮЗ 3 н/о н/о +17.8 +7.2 50 +18 +18 1019.8 1014.8
18 10.06 ЮЗ 3-6
{7}
н/о н/о +17.3 +7.1 51 +17 +17 1019.9 1014.9 +15.0 +20.0
19 10.06 З 1 н/о н/о +15.3 +8.4 63 +16 +16 1020.3 1015.2
20 10.06 Ю 1-2
{3}
н/о н/о +12.7 +8.8 77 +13 +13 1020.5 1015.4
21 10.06 Ю 1-2
{4}
н/о н/о +11.2 +8.1 81 +11 +11 1020.9 1015.7
22 10.06 Ю 1-2
{2}
н/о н/о +9.6 +7.9 89 +9 +9 1021.1 1016.0
23 10.06 Ю 2 н/о н/о +8.6 +7.5 93 +7 +7 1021.4 1016.2
00 11.06 Ю 1-2
{2}
н/о н/о +6.5 +5.7 95 +5 +5 1021.6 1016.4
01 11.06 ЮВ 1-1
{2}
н/о н/о +6.2 +6.0 99 +5 +5 1021.8 1016.5
02 11.06 Ю 1-1
{1}
н/о н/о +5.7 +5.5 99 +4 +4 1021.7 1016.5
03 11.06 штиль 0-1
{2}
н/о н/о +6.6 +6.2 97 +5 +5 1022.1 1016.9
04 11.06 штиль 0 н/о н/о +10.4 +9.0 91 +10 +10 1022.1 1017.0
05 11.06 С 1-2
{2}
н/о н/о +14.1 +11.5 84 +14 +14 1022.2 1017.2
06 11.06 ЮВ 1-3
{3}
н/о н/о +17.2 +10.6 65 +18 +18 1022.0 1017.0 +5.1 +17.5
07 11.06 ЮЗ 2 н/о н/о +18.7 +9.5 55 +20 +20 1022.2 1017.2
08 11.06 З 2 н/о н/о +19.7 +8.7 49 +21 +21 комфорт 1022.1 1017.1
09 11.06 Ю 2-4
{5}
н/о н/о +21.5 +7.2 40 +22 +22 комфорт 1022.2 1017.3
10 11.06 С 2-5
{5}
н/о н/о +21.7 +7.6 40 +23 +23 комфорт 1022.2 1017.2
11 11.06 С 3 н/о н/о +22.3 +6.6 36 +23 +23 комфорт 1021.9 1016.9
12 11.06 ЮЗ 2-4
{6}
н/о н/о +23.5 +9.4 41 +24 +24 комфорт 1021.4 1016.5
13 11.06 СЗ 3 н/о н/о +23.4 +9.1 40 +25 +25 комфорт 1021.7 1016.7
14 11.06 З 2-4
{5}
н/о н/о +23.5 +6.9 34 +24 +24 комфорт 1021.3 1016.4
15 11.06 ЮВ 2-4
{5}
н/о н/о +22.1 +9.1 43 +23 +23 комфорт 1020.9 1016.0
16 11.06 Ю 4 н/о н/о +21.4 +9.0 45 +23 +23 комфорт 1020.8 1015.9
17 11.06 Ю 2-3
{6}
н/о н/о +20.5 +9.3 49 +23 +23 комфорт 1020.6 1015.7
18 11.06 Ю 1-2
{3}
н/о н/о +19.3 +12.1 63 +22 +22 комфорт 1021.1 1016.1 +17.2 +23.8
19 11.06 Ю 1-1
{2}
н/о н/о +16.7 +11.8 73 +18 +18 1021.5 1016.4
20 11.06 штиль 0 н/о н/о +14.9 +11.6 81 +15 +15 1021.5 1016.4
21 11.06 С 2-4
{6}
н/о н/о +16.4 +9.1 62 +17 +17 1022.5 1017.4
22 11.06 С 2-6
{6}
н/о н/о +15.1 +8.4 64 +15 +15 1022.4 1017.3
23 11.06 С 2-6
{8}
н/о н/о +14.3 +6.7 60 +14 +14 1022.8 1017.7
00 12.06 С 2-6
{8}
н/о н/о +13.2 +4.8 57 +13 +13 1023.7 1018.6
01 12.06 С 3 н/о н/о +12.1 +3.0 54 +11 +11 1024.2 1019.1
02 12.06 С 2 н/о н/о +11.0 +3.1 58 +10 +10 1024.3 1019.2
03 12.06 С 2-4
{5}
н/о н/о +10.7 +4.2 64 +10 +10 1024.5 1019.3
04 12.06 С 2 н/о н/о +11.1 +5.2 67 +10 +10 1024.6 1019.4
05 12.06 С 3 н/о н/о +12.2 +6.0 66 +11 +11 1024.9 1019.8
06 12.06 СВ 3-6
{7}
н/о н/о +13.4 +6.6 63 +12 +12 1024.9 1019.8 +10.3 +19.3
07 12.06 В 4 н/о н/о +13.9 +6.6 61 +13 +13 1025.1 1020.0
08 12.06 В 3 н/о н/о +16.0 +6.4 53 +16 +16 1025.2 1020.1
09 12.06 С 4-8
{9}
н/о н/о +17.2 +6.8 50 +17 +17 1025.3 1020.2
10 12.06 СВ 3 н/о н/о +17.4 +6.9 50 +17 +17 1025.3 1020.2
11 12.06 СВ 4 н/о н/о +17.9 +6.8 48 +18 +18 1025.2 1020.2
12 12.06 В 3-7
{9}
н/о н/о +18.9 +5.0 40 +19 +19 1024.8 1019.8
13 12.06 В 3-7
{9}
н/о н/о +19.9 +5.7 39 +21 +21 комфорт 1024.5 1019.5
14 12.06 СВ 3 н/о н/о +19.4 +6.0 42 +20 +20 1024.4 1019.4
15 12.06 ЮВ 4-7
{9}
н/о н/о +17.9 +7.6 51 +18 +18 1023.7 1018.7
16 12.06 ЮВ 4-6
{7}
н/о н/о +16.7 +6.4 51 +16 +16 1023.8 1018.8
17 12.06 ЮВ 3 н/о н/о +15.7 +6.0 52 +15 +15 1024.2 1019.1
18 12.06 ЮВ 3-6
{7}
н/о н/о +14.8 +4.0 48 +14 +14 1024.1 1019.0 +13.4 +20.1
19 12.06 ЮВ 3 н/о н/о +14.1 +3.5 49 +13 +13 1024.3 1019.2
20 12.06 ЮВ 3-6
{8}
н/о н/о +13.6 +3.5 50 +13 +13 1024.6 1019.5
21 12.06 ЮВ 3-6
{9}
н/о н/о +12.8 +4.1 55 +12 +12 1024.5 1019.4
22 12.06 В 3 н/о н/о +12.5 +3.9 56 +11 +11 1024.2 1019.1
23 12.06 В 3 н/о н/о +12.0 +3.6 56 +11 +11 1024.1 1019.0
00 13.06 ЮВ 2-5
{8}
н/о н/о +11.2 +4.0 61 +10 +10 1023.6 1018.5
01 13.06 В 2-3
{5}
н/о н/о +11.1 +4.5 64 +10 +10 1023.4 1018.3
02 13.06 СВ 2-5
{5}
н/о н/о +10.7 +5.2 69 +10 +10 1022.7 1017.5
03 13.06 В 1-4
{5}
н/о н/о +11.4 +6.6 72 +11 +11 1022.4 1017.3
04 13.06 В 2 н/о н/о +13.0 +7.3 68 +12 +12 1021.4 1016.3
05 13.06 В 3-7
{9}
н/о н/о +13.5 +7.8 68 +12 +12 1020.3 1015.2
06 13.06 ЮВ 5-9
{9}
н/о н/о +14.6 +8.1 65 +13 +13 1020.4 1015.3 +10.6 +15.0
07 13.06 ЮВ 3-7
{9}
н/о н/о +14.6 +8.5 67 +14 +14 1020.4 1015.3
08 13.06 ЮВ 4 н/о н/о +14.4 +9.0 70 +13 +13 1020.3 1015.2
09 13.06 В 3-7
{10}
н/о н/о +16.1 +10.0 67 +16 +16 1020.4 1015.4
10 13.06 В 4-8
{9}
н/о н/о +15.5 +9.7 68 +15 +15 1019.2 1014.1
11 13.06 В 3 н/о н/о +15.6 +10.5 72 +15 +15 1018.3 1013.3
12 13.06 ЮВ 3-8
{8}
н/о н/о +13.9 +12.0 88 +13 +13 1018.9 1013.8
13 13.06 ЮВ 4 н/о н/о +14.1 +12.6 91 +13 +13 1018.3 1013.2
14 13.06 ЮВ 3-8
{9}
н/о н/о +15.9 +13.5 86 +15 +15 1017.8 1012.8
15 13.06 ЮВ 5-10
{10}
н/о н/о +17.1 +13.5 79 +16 +16 1017.7 1012.7
16 13.06 ЮВ 4 н/о н/о +16.9 +12.6 76 +16 +16 1017.5 1012.5
17 13.06 В 2-7
{7}
н/о н/о +16.1 +12.4 79 +16 +16 1016.3 1011.3
18 13.06 ЮВ 2-4
{7}
н/о н/о +14.4 +13.3 93 +14 +14 1015.8 1010.8 +13.5 +17.6
19 13.06 ЮВ 2 н/о н/о +14.3 +12.8 91 +14 +14 1015.2 1010.2
20 13.06 В 2 н/о н/о +14.3 +12.7 90 +14 +14 1015.2 1010.2
21 13.06 З 1-2
{4}
н/о н/о +14.3 +13.1 92 +15 +15 1015.7 1010.7
22 13.06 В 2 н/о н/о +14.3 +13.2 93 +14 +14 1015.5 1010.5
23 13.06 З 1-2
{3}
н/о н/о +14.3 +13.4 94 +15 +15 1015.1 1010.1
00 14.06 ЮВ 1-2
{2}
н/о н/о +14.5 +13.6 94 +15 +15 1014.6 1009.6
01 14.06 ЮВ 1 н/о н/о +14.5 +13.6 94 +15 +15 1014.7 1009.6
02 14.06 Ю 1 н/о н/о +14.5 +13.6 94 +15 +15 1014.9 1009.8
03 14.06 СВ 1-2
{2}
н/о н/о +14.6 +13.8 95 +15 +15 1014.5 1009.5
04 14.06 СВ 1 н/о н/о +14.6 +13.8 95 +15 +15 1014.8 1009.7
05 14.06 СВ 2-3
{3}
н/о н/о +14.6 +14.2 97 +14 +14 1014.7 1009.6
06 14.06 В 2-3
{4}
н/о н/о +15.2 +14.4 95 +15 +15 1014.6 1009.5 +14.0 +15.4
07 14.06 СВ 2-4
{4}
н/о н/о +15.5 +15.0 97 +15 +15 1014.6 1009.6
08 14.06 В 2 н/о н/о +16.5 +15.3 93 +17 +17 1015.1 1010.1
09 14.06 ЮВ 2-4
{4}
н/о н/о +16.8 +15.8 94 +17 +17 1015.6 1010.5
10 14.06 Ю 4 н/о н/о +16.6 +15.5 93 +16 +16 1016.0 1011.0
11 14.06 Ю 4 н/о н/о +15.9 +14.9 94 +15 +15 1016.3 1011.2
12 14.06 Ю 3-5
{5}
н/о н/о +16.4 +14.9 91 +16 +16 1016.0 1011.0
13 14.06 Ю 3-5
{6}
н/о н/о +17.1 +14.8 86 +17 +17 1015.7 1010.7
14 14.06 Ю 3 н/о н/о +16.0 +14.5 91 +16 +16 1015.8 1010.8
15 14.06 Ю 1-3
{4}
н/о н/о +15.3 +14.8 97 +16 +16 1015.7 1010.7
16 14.06 Ю 1 н/о н/о +15.4 +15.1 98 +16 +16 1015.6 1010.6
17 14.06 З 2 н/о н/о +15.7 +14.9 95 +16 +16 1015.7 1010.6
18 14.06 З 1-3
{4}
н/о н/о +15.9 +14.9 94 +17 +17 1015.4 1010.4 +15.0 +17.3
19 14.06 З 2 н/о н/о +15.9 +14.9 94 +16 +16 1015.6 1010.6
20 14.06 З 4 н/о н/о +15.0 +13.3 90 +14 +14 1016.4 1011.3
21 14.06 З 2-3
{5}
н/о н/о +14.5 +12.9 90 +14 +14 1016.6 1011.5
22 14.06 З 2-3
{5}
н/о н/о +13.8 +12.1 89 +13 +13 1016.6 1011.5
23 14.06 ЮЗ 2 н/о н/о +13.3 +11.8 91 +13 +13 1016.8 1011.7
00 15.06 СЗ 5-10
{10}
н/о н/о +12.9 +11.3 90 +11 +11 1016.9 1011.8
01 15.06 З 4 н/о н/о +12.5 +11.1 91 +10 +10 1016.8 1011.7
02 15.06 З 4-5
{11}
н/о н/о +12.1 +10.9 92 +10 +10 1016.6 1011.5
03 15.06 З 4-7
{7}
н/о н/о +12.3 +11.1 92 +10 +10 1016.8 1011.8
04 15.06 СЗ 2 н/о н/о +12.4 +11.2 92 +11 +11 1017.0 1011.9
05 15.06 З 3 н/о н/о +12.5 +11.4 93 +11 +11 1016.7 1011.6
06 15.06 СЗ 3-5
{8}
н/о н/о +13.4 +11.6 89 +12 +12 1016.7 1011.6 +12.1 +15.9
07 15.06 СЗ 3-6
{6}
н/о н/о +14.3 +12.0 86 +13 +13 1016.6 1011.5
08 15.06 СЗ 3 н/о н/о +15.3 +12.7 84 +15 +15 1016.9 1011.8
09 15.06 З 3-4
{6}
н/о н/о +16.2 +12.7 80 +16 +16 1017.1 1012.0
10 15.06 СЗ 3-5
{7}
н/о н/о +17.8 +14.0 78 +18 +18 1017.1 1012.1
11 15.06 З 3 н/о н/о +18.8 +12.9 69 +20 +20 1016.7 1011.7
12 15.06 З 2-5
{6}
н/о н/о +20.6 +13.9 65 +24 +24 комфорт 1016.3 1011.3
13 15.06 СЗ 5 н/о н/о +21.2 +14.4 65 +24 +24 комфорт 1016.3 1011.4
14 15.06 СЗ 5-6
{8}
н/о н/о +21.3 +12.8 58 +24 +24 комфорт 1016.0 1011.0
15 15.06 СЗ 4-6
{7}
н/о н/о +21.0 +12.4 58 +24 +24 комфорт 1015.9 1011.0
16 15.06 СЗ 4 н/о н/о +21.2 +12.6 58 +23 +23 комфорт 1015.5 1010.6
17 15.06 З 2 н/о н/о +21.0 +13.4 62 +24 +24 комфорт 1015.6 1010.6
18 15.06 СЗ 3-4
{4}
н/о н/о +20.3 +13.9 67 +23 +23 комфорт 1015.3 1010.4 +13.3 +22.2
19 15.06 штиль 0 н/о н/о +17.2 +14.2 83 +17 +17 1015.6 1010.6
20 15.06 штиль 0 н/о н/о +15.4 +13.2 87 +15 +15 1016.0 1011.0
21 15.06 штиль 0
{2}
н/о н/о +12.7 +12.2 97 +12 +12 1016.3 1011.2
22 15.06 штиль 0 н/о н/о +11.3 +11.2 99 +11 +11 1016.3 1011.2
23 15.06 СВ 1-1
{1}
н/о н/о +9.3 +9.2 99 +9 +9 1016.3 1011.1
00 16.06 штиль 0-2
{2}
н/о н/о +8.8 +8.8 100 +8 +8 1016.4 1011.3
01 16.06 В 1 н/о н/о +8.0 +8.0 100 +7 +7 1016.6 1011.5
02 16.06 штиль 0 н/о н/о +7.1 +7.1 100 +6 +6 1016.2 1011.0
03 16.06 штиль 0 н/о н/о +8.8 +8.8 100 +8 +8 1015.9 1010.8
04 16.06 штиль 0 н/о н/о +12.6 +11.1 91 +12 +12 1015.9 1010.8
05 16.06 штиль 0-2
{2}
н/о н/о +16.2 +13.6 85 +16 +16 1015.8 1010.8
06 16.06 Ю 3-5
{5}
н/о н/о +17.6 +12.9 74 +18 +18 1015.6 1010.6 +6.8 +20.3
07 16.06 Ю 2-4
{5}
н/о н/о +19.4 +13.5 69 +21 +21 комфорт 1015.3 1010.3
08 16.06 Ю 2 н/о н/о +20.8 +13.8 64 +24 +24 комфорт 1014.9 1010.0
09 16.06 Ю 3-5
{6}
н/о н/о +22.0 +12.8 56 +25 +25 комфорт 1014.7 1009.8
10 16.06 З 2 н/о н/о +22.5 +13.2 56 +25 +25 комфорт 1014.4 1009.5
11 16.06 ЮЗ 3 н/о н/о +24.4 +13.6 51 +27 +27 жарко 1013.9 1009.0
12 16.06 Ю 3-6
{6}
н/о н/о +23.3 +11.4 47 +26 +26 жарко 1013.4 1008.5
13 16.06 ЮЗ 3-4
{8}
н/о н/о +23.9 +11.5 46 +25 +25 комфорт 1013.3 1008.4
14 16.06 З 3 н/о н/о +24.0 +11.8 46 +26 +26 жарко 1012.8 1007.9

 

Местоположение метеостанции Вихти (Финляндия): широта 60.42 долгота 24.40 высота над уровнем моря 42 м.

В архиве по умолчанию представлена погода в Вихти за последнюю неделю. Архивные данные за месяц целиком и за предыдущие месяцы, начиная с января 2011 года, Вы можете получить, выбрав интересующий диапазон дат из раскрывающегося списка и нажав кнопку "Ввод!".


*Определитесь, кто Вы:
робот инопланетянин человек

Внимание! Время в таблицах - всемирное. Для получения местного времени необходимо прибавить поправку, которая равна 1 ч.

Смотрите также архив погоды в соседних городах и на ближайших метеорологических станциях:

Погода в Нурмиярви (Финляндия) (17 км)
Погода в Эспо Нууксио (Финляндия) (17 км)
Погода в Лохья Порла (Финляндия) (28 км)
Погода в Хювинкяа (Финляндия) (30 км)
Погода в Хельсинки (Финляндия) (32 км)
Погода в Эспо Тапиола (Финляндия) (34 км)
Погода в Хельсинки университете (Финляндия) (39 км)
Погода в Хельсинки Кайсаниеми (Финляндия) (40 км)
Погода в Сомеро Салкола (Финляндия) (41 км)
Погода в Аэропорту Сало Киикала (Финляндия) (41 км)

Пояснения к столбцам:

Ветер - указаны скорость ветра в м/с - средняя за 10 мин, порывы в срок и между сроками (в фигурных скобках) и направление, откуда дует ветер: С - северный, СВ - северо-восточный, В - восточный, ЮВ - юго-восточный, Ю - южный, ЮЗ - юго-западный, З - западный, СЗ - северо-западный.
Видимость - горизонтальная дальность видимости в метрах или километрах. При видимости от 1 до 10 км при отсутствии осадков обычно наблюдается дымка, при ухудшении видимости до 1 км и менее - туман. В сухую погоду видимость может ухудшаться дымом, пылью или мглою.
Явления - указаны атмосферные явления, наблюдавшиеся в срок или в последний час перед сроком; фигурными скобками обозначены явления, наблюдавшиеся между сроками (за 1-3 часа до срока); квадратными скобками обозначены град или гололедные отложения с указанием их диаметра в мм.
Облачность - указаны через наклонную черту общая и нижняя облачность в баллах и высота нижней границы облаков в метрах; квадратными скобками обозначены формы облаков: Ci - перистые, Cs - перисто-слоистые, Cc - перисто-кучевые, Ac - высококучевые, As - высокослоистые, Sc - слоисто-кучевые, Ns - слоисто-дождевые, Cu - кучевые, Cb - кучево-дождевые. Подробнее классификацию облаков см. в Атласе облаков (PDF).
T - Температура воздуха - температура, измеренная на высоте 2 м над землей.
Td - Температура точки росы - температура, при понижении до которой содержащийся в воздухе водяной пар достигнет насыщения.
f - Относительная влажность воздуха - влажноcть воздуха, измеренная на высоте 2 м над землей.
Te - Эффективная температура - температура, которую ощущает одетый по сезону человек в тени. Характеристика душности погоды. При расчете учитывается влияние влажности воздуха и скорости ветра на теплоощущения человека.
Tes - Эффективная температура на солнце - температура, которую ощущает человек, с поправкой на солнечный нагрев. Характеристика знойности погоды. Зависит от высоты солнца над горизонтом, облачности и скорости ветра. Ночью, в пасмурную погоду, а также при ветре 12 м/с и более поправка равна нулю.
P - Атмосферное давление - приведенное к уровню моря атмосферное давление.
Po - Атмосферное давление - измеренное на уровне метеостанции атмосферное давление.
Tmin - Минимальная температура - минимум температуры воздуха на высоте 2 м над землей.
Tmax - Максимальная температура - максимум температуры воздуха на высоте 2 м над землей.
R - Количество осадков - Количество выпавших осадков за период времени, мм. При наведении курсора мыши на число - период времени, за который выпало указанное количество осадков.
R24 - Количество осадков - Количество выпавших осадков за 24 часа, мм.
S - Снежный покров - Высота снежного покрова, см. При наведении курсора мыши на число - состояние снежного покрова и степень покрытия местности в баллах.